Flag for U.S.A. Weather past 2 weeks in Arlington, Texas, U.S.A.

Now
87 °F

Passing clouds.


Feels Like: 93 °F
Forecast: 77 / 96 °F
Wind: 12 mph from South

Location: Arlington Municipal Airport

Current Time: Sep 2, 2014 at 11:42:38 AM

Latest Report: Sep 2, 2014 at 10:53 AM


Visibility: 10 mi

Pressure: 29.94 "Hg

Humidity: 59%

Dew point: 71 °F

Location of ArlingtonLocation

Historic Weather in Arlington — Graph

°F

Arlington temperature yesterday

Maximum temperature yesterday: 96 °F (at 3:53 PM)
Minimum temperature yesterday: 77 °F (at 4:53 AM)
Average temperature yesterday: 86 °F

Past Weeks' High & Low Weather Summary

 TemperatureHumidityPressure
High99 °F (Aug 22, 4:53 PM)90% (Aug 29, 5:53 AM)30.04 "Hg (Aug 29, 5:53 AM)
Low71 °F (Aug 28, 2:53 AM)25% (Aug 22, 4:53 PM)29.80 "Hg (Sep 1, 5:53 PM)
Average86 °F57%29.91 "Hg
* Reported Aug 18 9:53 AM — Sep 2 9:53 AM, Arlington, Weather by CustomWeather, © 2014

Note: Actual official high and low records may vary slightly from our data, if they occured in-between our weather recording intervals... More about our weather records

Advertising

Arlington weather history for previous 24 hours

 ConditionsComfort  
Time TempWeatherWind HumidityBarometerVisibility
9:53 AM
Sep 2
83 °FSunny.8 mph70%29.94 "Hg10 mi
8:53 AM81 °FPartly sunny.7 mph74%29.93 "Hg10 mi
7:53 AM79 °FClear.7 mph79%29.91 "Hg10 mi
6:53 AM78 °FClear.10 mph79%29.87 "Hg10 mi
5:53 AM79 °FClear.12 mph74%29.85 "Hg10 mi
4:53 AM80 °FClear.10 mph69%29.85 "Hg10 mi
3:53 AM81 °FClear.13 mph67%29.85 "Hg10 mi
2:53 AM82 °FClear.14 mph65%29.84 "Hg10 mi
1:53 AM84 °FClear.12 mph61%29.86 "Hg10 mi
12:53 AM85 °FClear.14 mph59%29.86 "Hg10 mi
11:53 PM
Sep 1
86 °FClear.14 mph55%29.85 "Hg10 mi
10:53 PM88 °FClear.17 mph46%29.85 "Hg10 mi
9:53 PM88 °FClear.14 mph46%29.84 "Hg10 mi
8:53 PM90 °FClear.10 mph45%29.83 "Hg10 mi
7:53 PM91 °FSunny.13 mph45%29.81 "Hg10 mi
6:53 PM93 °FSunny.14 mph42%29.81 "Hg10 mi
5:53 PM95 °FSunny.14 mph39%29.80 "Hg10 mi
4:53 PM96 °FPartly sunny.18 mph37%29.80 "Hg10 mi
3:53 PM96 °FPassing clouds.17 mph38%29.82 "Hg10 mi
2:53 PM95 °FPartly sunny.15 mph41%29.85 "Hg10 mi
1:53 PM94 °FPassing clouds.13 mph44%29.86 "Hg10 mi
12:53 PM91 °FPassing clouds.12 mph52%29.88 "Hg10 mi
11:53 AM89 °FPassing clouds.14 mph53%29.89 "Hg10 mi
Weather by CustomWeather, © 2014

See weather overviewHow to use our weather pages